Location: ??
(35.5052°N, 139.7262°E)
Time: 02:16:48
(UTC+00:00)

Cosmos 1464 Rocket - Pass Details

Date: 20 June 2021
Orbit: 953 x 1001 km, 82.9° (Epoch: 26 July)

Event Time Altitude Azimuth Distance (km) Brightness Sun altitude
Rises 13:42:02 0° 354° (N) 3,722 8.2 -29.3°
Reaches altitude 10° 13:44:34 10° 356° (N) 2,772 7.3 -29.5°
Maximum altitude 13:50:58 82° 83° (E) 1,013 3.9 -29.8°
Enters shadow 13:50:59 82° 88° (E) 1,013 3.9 -29.8°
